User: anonymous   Login
Location: Godiavel Galaoual
(15.2485°N, 12.6604°W)
Time: 22:48:38
(UTC+00:00)
Language:

Envisat - Orbit

View from above orbital plane
View from above orbital plane
View from above satellite
View from above satellite

Ground track
Ground track

The orbit data is extracted from the following two-line orbital elements,

1 27386U 02009A   22024.57943174  .00000076  00000-0  38747-4 0  9993
2 27386  98.1689  12.5562 0001194  86.6004  22.8925 14.38070838 42780
Epoch (UTC): 24 January 2022 13:54:22
Eccentricity: 0.0001194
inclination: 98.1689°
perigee height: 764 km
apogee height: 766 km
right ascension of ascending node: 12.5562°
argument of perigee: 86.6004°
revolutions per day: 14.38070838
mean anomaly at epoch: 22.8925°
orbit number at epoch: 4278

The dashed part of the orbit path shows where the satellite is in the earth's shadow,  

DLR